Location: Sigmaringen
(48.0900°N, 9.2120°E)
Time: 23:52:28
(UTC+01:00)

OTV 5 (USA 277) - Visible Passes

Search period start: 17 November 2017 00:00
Search period end: 27 November 2017 00:00
Orbit: 404 x 417 km, 43.0° (Epoch: 07 September)

Date Brightness Start Highest point End Pass type
(mag) Time Alt. Az. Time Alt. Az. Time Alt. Az.
17 Nov ? 05:42:03 26° SSW 05:42:21 27° SSW 05:45:10 10° SE visible
18 Nov ? 04:53:27 16° SE 04:53:27 16° SE 04:54:20 10° SE visible
18 Nov ? 06:26:16 10° WSW 06:28:07 14° SSW 06:29:57 10° S visible
19 Nov ? 05:37:38 18° SSW 05:37:38 18° SSW 05:39:35 10° SSE visible
